Location: Kernascl�den
(48.0062°N, 3.3198°W)
Time: 12:26:44
(UTC+00:00)

SeaSat 1 - Pass Details

Date: 21 January 2021
Orbit: 744 x 747 km, 108.0° (Epoch: 06 March)

Event Time Altitude Azimuth Distance (km) Brightness Sun altitude
Rises 17:31:15 0° 23° (NNE) 3,200 5.3 -6.0°
Reaches altitude 10° 17:33:40 10° 14° (NNE) 2,273 4.6 -6.4°
Maximum altitude 17:38:06 34° 311° (NW) 1,212 3.9 -7.1°
Drops below altitude 10° 17:42:31 10° 247° (WSW) 2,263 6.7 -7.8°
Sets 17:44:56 0° 238° (WSW) 3,184 7.7 -8.2°
